SWARM B

Last updated on Mon Sep 21 2026 00:03:33 GMT+0000 (Coordinated Universal Time)

1 39451U 13067A 26263.43698727 .00002051 00000+0 71456-4 0 9998 2 39451 87.7430 313.3928 0003292 84.8302 275.3323 15.29061755697797
UTC large
Height (km)
Speed (km/s)
/
Latitude / Longitude
Inclination (degrees)
Orbital Period (minutes)
Azimuth
Elevation
Range (km)
Doppler Factor

Next 0 passes for location: London (51.5072 / 0.1276)

No passes found over London.
SWARM B